| time (UTC) | temp F | wind direction | speed MPH | gust MPH | rain 1hr in | rain 24hr in | rain mn in | humidity % | barometer mb |
| 20260505034515 | 47 | 99 | 0.0 | 0.0 | 0.00 | 0.03 | 0.03 | 90 | 705.4 |
| 20260505033017 | 47 | 99 | 0.0 | 0.0 | 0.00 | 0.03 | 0.03 | 90 | 705.1 |
| 20260505031512 | 48 | 99 | 0.0 | 0.0 | 0.00 | 0.03 | 0.03 | 89 | 704.9 |
| 20260505030013 | 48 | 99 | 0.0 | 0.0 | 0.00 | 0.03 | 0.03 | 89 | 704.7 |
| 20260505024532 | 49 | 99 | 0.0 | 0.0 | 0.00 | 0.03 | 0.03 | 89 | 704.7 |
| 20260505023011 | 49 | 95 | 0.0 | 0.0 | 0.00 | 0.03 | 0.03 | 89 | 704.6 |
| 20260505021511 | 49 | 95 | 0.0 | 0.0 | 0.00 | 0.03 | 0.03 | 88 | 704.5 |
| 20260505020011 | 50 | 95 | 0.0 | 0.0 | 0.00 | 0.03 | 0.03 | 86 | 704.2 |
| 20260505014511 | 51 | 95 | 0.0 | 0.0 | 0.00 | 0.03 | 0.03 | 85 | 703.8 |
| 20260505013018 | 51 | 110 | 0.0 | 0.0 | 0.00 | 0.03 | 0.03 | 86 | 703.8 |
| 20260505011509 | 51 | 110 | 0.0 | 0.0 | 0.00 | 0.03 | 0.03 | 85 | 703.3 |
| 20260505010009 | 51 | 111 | 0.0 | 0.0 | 0.00 | 0.03 | 0.03 | 84 | 703.0 |
| 20260505004510 | 51 | 196 | 0.0 | 0.0 | 0.00 | 0.03 | 0.03 | 85 | 702.6 |
| 20260505003013 | 52 | 169 | 0.0 | 0.0 | 0.00 | 0.03 | 0.03 | 85 | 702.6 |
| 20260505001508 | 52 | 136 | 0.0 | 0.0 | 0.00 | 0.03 | 0.03 | 84 | 702.4 |
| 20260505000022 | 52 | 137 | 0.0 | 0.0 | 0.00 | 0.03 | 0.03 | 83 | 702.1 |
| 20260504234508 | 53 | 146 | 0.0 | 0.0 | 0.00 | 0.03 | 0.03 | 83 | 701.8 |
| 20260504233010 | 53 | 153 | 0.0 | 0.0 | 0.00 | 0.03 | 0.03 | 82 | 701.5 |
| 20260504231520 | 54 | 121 | 0.0 | 4.0 | 0.00 | 0.03 | 0.03 | 82 | 701.2 |
| 20260504230005 | 54 | 128 | 0.0 | 0.0 | 0.00 | 0.03 | 0.03 | 82 | 701.1 |
| 20260504224506 | 55 | 108 | 0.0 | 1.0 | 0.00 | 0.03 | 0.03 | 81 | 700.7 |
| 20260504223005 | 56 | 139 | 0.0 | 2.0 | 0.00 | 0.03 | 0.03 | 80 | 700.4 |
| 20260504221505 | 56 | 138 | 0.0 | 2.0 | 0.00 | 0.03 | 0.03 | 80 | 700.1 |
| 20260504220007 | 56 | 119 | 0.0 | 4.0 | 0.00 | 0.03 | 0.03 | 78 | 700.0 |
| 20260504214502 | 57 | 119 | 0.0 | 4.0 | 0.00 | 0.03 | 0.03 | 77 | 699.8 |
| 20260504213004 | 58 | 117 | 0.0 | 2.0 | 0.00 | 0.03 | 0.03 | 75 | 699.7 |
| 20260504211559 | 58 | 107 | 0.0 | 12.0 | 0.00 | 0.03 | 0.03 | 74 | 699.9 |
| 20260504210110 | 59 | 155 | 0.0 | 6.0 | 0.00 | 0.03 | 0.03 | 74 | 699.9 |
| 20260504204603 | 58 | 116 | 0.0 | 8.0 | 0.00 | 0.03 | 0.03 | 78 | 700.0 |
| 20260504203056 | 58 | 152 | 0.0 | 3.0 | 0.00 | 0.03 | 0.03 | 75 | 700.0 |
| 20260504201554 | 57 | 133 | 0.0 | 3.0 | 0.01 | 0.03 | 0.03 | 79 | 700.3 |
| 20260504200057 | 57 | 115 | 0.0 | 7.0 | 0.01 | 0.03 | 0.03 | 79 | 700.3 |
| 20260504194606 | 58 | 137 | 0.0 | 8.0 | 0.01 | 0.03 | 0.03 | 79 | 700.4 |
| 20260504193052 | 57 | 127 | 0.0 | 9.0 | 0.01 | 0.03 | 0.03 | 80 | 700.7 |
| 20260504191550 | 57 | 125 | 0.0 | 0.0 | 0.00 | 0.02 | 0.02 | 84 | 701.1 |
| 20260504184555 | 61 | 114 | 0.0 | 6.0 | 0.00 | 0.02 | 0.02 | 78 | 701.2 |
| 20260504183044 | 59 | 132 | 0.0 | 19.0 | 0.00 | 0.02 | 0.02 | 80 | 701.4 |
| 20260504181546 | 61 | 128 | 0.0 | 2.0 | 0.00 | 0.02 | 0.02 | 77 | 701.6 |
| 20260504180109 | 60 | 133 | 0.0 | 1.0 | 0.00 | 0.02 | 0.02 | 80 | 701.7 |
| 20260504174537 | 59 | 119 | 0.0 | 1.0 | 0.00 | 0.02 | 0.02 | 79 | 702.3 |
| 20260504173038 | 60 | 128 | 0.0 | 3.0 | 0.00 | 0.02 | 0.02 | 73 | 702.2 |
| 20260504171535 | 60 | 103 | 0.0 | 2.0 | 0.00 | 0.02 | 0.02 | 74 | 702.5 |
| 20260504081518 | 48 | 141 | 0.0 | 0.0 | 0.00 | 0.02 | 0.01 | 91 | 702.3 |
| 20260504050113 | 49 | 152 | 0.0 | 0.0 | 0.00 | 0.02 | 0.02 | 90 | 704.4 |
| 20260504044546 | 49 | 152 | 0.0 | 0.0 | 0.00 | 0.02 | 0.02 | 90 | 704.7 |
| 20260504043046 | 49 | 152 | 0.0 | 0.0 | 0.00 | 0.02 | 0.02 | 90 | 704.8 |
| 20260504041546 | 49 | 152 | 0.0 | 0.0 | 0.00 | 0.02 | 0.02 | 90 | 704.8 |
| 20260504040044 | 49 | 152 | 0.0 | 0.0 | 0.00 | 0.02 | 0.02 | 90 | 704.9 |